GACFB EGPC-EGPE

Flight info

Callsign GACFB
Flight time 0h 54m
Altitude 4000
Route 5815N00332W 5804N00353W 5750N00408W/N0111F030
Aircraft C172/L-SDFG/C

Departure

Time 2026-04-22 14:46
Airport Wick John O'Groats Airport (EGPC)

Arrival

Time 2026-04-22 15:40
Airport Inverness Airport (EGPE)
Time Latitude Longitude Altitude Speed Heading
2026-04-22 14:27 58.45412 -3.08799 119 ft 0 kts 127°
2026-04-22 14:37 58.45408 -3.08792 119 ft 0 kts 167°
2026-04-22 14:38 58.45390 -3.08823 119 ft 8 kts 227°
2026-04-22 14:38 58.45348 -3.08908 119 ft 4 kts 300°
2026-04-22 14:38 58.45350 -3.08913 119 ft 0 kts 312°
2026-04-22 14:38 58.45350 -3.08914 119 ft 0 kts 315°
2026-04-22 14:39 58.45362 -3.08987 119 ft 10 kts 248°
2026-04-22 14:39 58.45301 -3.09165 115 ft 20 kts 253°
2026-04-22 14:39 58.45253 -3.09425 109 ft 21 kts 252°
2026-04-22 14:40 58.45246 -3.09728 102 ft 1 kts 283°
2026-04-22 14:40 58.45261 -3.09847 98 ft 17 kts 285°
2026-04-22 14:40 58.45345 -3.10103 94 ft 26 kts 313°
2026-04-22 14:40 58.45481 -3.10340 95 ft 25 kts 323°
2026-04-22 14:41 58.45596 -3.10362 99 ft 10 kts
2026-04-22 14:41 58.45675 -3.10341 103 ft 12 kts 12°
2026-04-22 14:41 58.45763 -3.10292 107 ft 13 kts 19°
2026-04-22 14:41 58.45856 -3.10229 109 ft 14 kts 21°
2026-04-22 14:42 58.45942 -3.10149 113 ft 12 kts 30°
2026-04-22 14:42 58.45995 -3.10153 115 ft 6 kts 320°
2026-04-22 14:42 58.46035 -3.10239 113 ft 11 kts 307°
2026-04-22 14:42 58.46086 -3.10388 110 ft 14 kts 304°
2026-04-22 14:43 58.46147 -3.10531 109 ft 14 kts 315°
2026-04-22 14:43 58.46217 -3.10638 108 ft 8 kts 346°
2026-04-22 14:43 58.46273 -3.10645 107 ft 8 kts
2026-04-22 14:43 58.46327 -3.10604 107 ft 10 kts 31°
2026-04-22 14:44 58.46331 -3.10598 107 ft 0 kts 36°
2026-04-22 14:44 58.46337 -3.10591 107 ft 6 kts 39°
2026-04-22 14:45 58.46352 -3.10503 108 ft 0 kts 119°
2026-04-22 14:45 58.46238 -3.10157 115 ft 62 kts 128°
2026-04-22 14:45 58.45925 -3.09575 363 ft 66 kts 130°
2026-04-22 14:45 58.45795 -3.08709 577 ft 75 kts 83°
2026-04-22 14:46 58.46069 -3.07809 791 ft 85 kts 37°
2026-04-22 14:46 58.46653 -3.07458 1002 ft 93 kts
2026-04-22 14:46 58.47326 -3.07363 1209 ft 99 kts
2026-04-22 14:46 58.47994 -3.07638 1409 ft 103 kts 326°
2026-04-22 14:47 58.48376 -3.08756 1607 ft 105 kts 281°
2026-04-22 14:47 58.48229 -3.10095 1807 ft 106 kts 236°
2026-04-22 14:47 58.47612 -3.10978 1867 ft 116 kts 204°
2026-04-22 14:47 58.46873 -3.11557 2041 ft 114 kts 201°
2026-04-22 14:48 58.46134 -3.12100 2216 ft 114 kts 201°
2026-04-22 14:48 58.45394 -3.12641 2391 ft 113 kts 201°
2026-04-22 14:48 58.44667 -3.13200 2564 ft 113 kts 205°
2026-04-22 14:48 58.43993 -3.13992 2739 ft 113 kts 217°
2026-04-22 14:49 58.43393 -3.14972 2914 ft 113 kts 223°
2026-04-22 14:49 58.42843 -3.16025 3087 ft 113 kts 226°
2026-04-22 14:49 58.42307 -3.17117 3261 ft 113 kts 227°
2026-04-22 14:49 58.41777 -3.18227 3437 ft 112 kts 227°
2026-04-22 14:50 58.41253 -3.19333 3611 ft 112 kts 228°
2026-04-22 14:50 58.40733 -3.20434 3785 ft 112 kts 228°
2026-04-22 14:50 58.40211 -3.21542 3953 ft 113 kts 228°
2026-04-22 14:50 58.39668 -3.22693 3998 ft 122 kts 228°
2026-04-22 14:51 58.39104 -3.23891 4115 ft 119 kts 228°
2026-04-22 14:51 58.38563 -3.25041 4287 ft 113 kts 228°
2026-04-22 14:51 58.38050 -3.26127 4457 ft 109 kts 228°
2026-04-22 14:51 58.37546 -3.27195 4631 ft 107 kts 228°
2026-04-22 14:52 58.37058 -3.28226 4803 ft 105 kts 228°
2026-04-22 14:52 58.36570 -3.29258 4962 ft 106 kts 228°
2026-04-22 14:52 58.36055 -3.30348 4999 ft 115 kts 228°
2026-04-22 14:52 58.35496 -3.31531 5002 ft 123 kts 228°
2026-04-22 14:53 58.34913 -3.32766 5001 ft 126 kts 228°
2026-04-22 14:53 58.34328 -3.34002 5000 ft 128 kts 228°
2026-04-22 14:53 58.33730 -3.35266 5000 ft 128 kts 228°
2026-04-22 14:53 58.33134 -3.36522 5000 ft 128 kts 228°
2026-04-22 14:54 58.32536 -3.37785 4999 ft 128 kts 228°
2026-04-22 14:54 58.31941 -3.39037 4999 ft 126 kts 228°
2026-04-22 14:54 58.31352 -3.40279 4999 ft 125 kts 228°
2026-04-22 14:54 58.30776 -3.41492 4999 ft 125 kts 228°
2026-04-22 14:55 58.30195 -3.42715 4999 ft 125 kts 228°
2026-04-22 14:55 58.29610 -3.43944 5000 ft 125 kts 228°
2026-04-22 14:55 58.29024 -3.45173 5000 ft 125 kts 228°
2026-04-22 14:55 58.28445 -3.46390 4999 ft 125 kts 228°
2026-04-22 14:56 58.27867 -3.47604 4999 ft 125 kts 228°
2026-04-22 14:56 58.27283 -3.48829 4999 ft 125 kts 228°
2026-04-22 14:56 58.26701 -3.50049 4999 ft 125 kts 228°
2026-04-22 14:56 58.26115 -3.51277 4999 ft 125 kts 228°
2026-04-22 14:57 58.25535 -3.52491 4999 ft 125 kts 228°
2026-04-22 14:57 58.24941 -3.53694 5000 ft 125 kts 226°
2026-04-22 14:57 58.24341 -3.54864 5000 ft 125 kts 226°
2026-04-22 14:57 58.23729 -3.56046 4999 ft 125 kts 226°
2026-04-22 14:58 58.23124 -3.57211 4999 ft 125 kts 226°
2026-04-22 14:58 58.22514 -3.58385 4999 ft 125 kts 226°
2026-04-22 14:58 58.21907 -3.59552 4999 ft 125 kts 226°
2026-04-22 14:58 58.21297 -3.60725 4999 ft 125 kts 226°
2026-04-22 14:59 58.20682 -3.61905 4999 ft 125 kts 226°
2026-04-22 14:59 58.20072 -3.63077 4999 ft 125 kts 226°
2026-04-22 14:59 58.19467 -3.64236 4999 ft 125 kts 226°
2026-04-22 14:59 58.18852 -3.65417 4999 ft 125 kts 225°
2026-04-22 15:00 58.18248 -3.66573 4999 ft 125 kts 225°
2026-04-22 15:00 58.17638 -3.67742 4999 ft 125 kts 225°
2026-04-22 15:00 58.17028 -3.68911 4999 ft 125 kts 225°
2026-04-22 15:00 58.16415 -3.70083 4999 ft 125 kts 225°
2026-04-22 15:01 58.15807 -3.71246 4999 ft 125 kts 225°
2026-04-22 15:01 58.15196 -3.72415 4999 ft 125 kts 225°
2026-04-22 15:01 58.14588 -3.73576 4999 ft 125 kts 225°
2026-04-22 15:01 58.13977 -3.74743 4999 ft 125 kts 225°
2026-04-22 15:02 58.13371 -3.75910 4999 ft 125 kts 225°
2026-04-22 15:02 58.12765 -3.77093 4999 ft 125 kts 226°
2026-04-22 15:02 58.12165 -3.78281 4999 ft 125 kts 226°
2026-04-22 15:02 58.11567 -3.79476 4999 ft 125 kts 226°
2026-04-22 15:03 58.10972 -3.80662 5000 ft 125 kts 226°
2026-04-22 15:03 58.10367 -3.81854 5000 ft 125 kts 226°
2026-04-22 15:03 58.09768 -3.83021 5000 ft 125 kts 225°
2026-04-22 15:03 58.09160 -3.84195 5000 ft 125 kts 225°
2026-04-22 15:04 58.08551 -3.85366 4999 ft 125 kts 225°
2026-04-22 15:04 58.07939 -3.86537 4999 ft 125 kts 225°
2026-04-22 15:04 58.07335 -3.87691 4999 ft 125 kts 225°
2026-04-22 15:04 58.06649 -3.88678 5000 ft 125 kts 213°
2026-04-22 15:05 58.05908 -3.89554 5000 ft 125 kts 211°
2026-04-22 15:05 58.05162 -3.90400 5000 ft 125 kts 210°
2026-04-22 15:05 58.04423 -3.91226 5000 ft 125 kts 210°
2026-04-22 15:05 58.03670 -3.92057 5000 ft 125 kts 210°
2026-04-22 15:06 58.02923 -3.92864 5000 ft 125 kts 209°
2026-04-22 15:06 58.02156 -3.93658 5000 ft 125 kts 208°
2026-04-22 15:06 58.01401 -3.94420 5000 ft 125 kts 208°
2026-04-22 15:06 58.00631 -3.95190 4999 ft 125 kts 208°
2026-04-22 15:07 57.99865 -3.95968 4999 ft 125 kts 208°
2026-04-22 15:07 57.99106 -3.96763 4999 ft 125 kts 209°
2026-04-22 15:07 57.98351 -3.97567 4999 ft 125 kts 210°
2026-04-22 15:07 57.97778 -3.98742 4998 ft 124 kts 244°
2026-04-22 15:08 57.97456 -4.00258 4999 ft 125 kts 248°
2026-04-22 15:08 57.97105 -4.01752 5000 ft 125 kts 245°
2026-04-22 15:08 57.96757 -4.03240 4999 ft 125 kts 246°
2026-04-22 15:08 57.96401 -4.04743 4999 ft 125 kts 246°
2026-04-22 15:09 57.96047 -4.06223 4999 ft 125 kts 245°
2026-04-22 15:09 57.95688 -4.07718 4951 ft 127 kts 246°
2026-04-22 15:09 57.95329 -4.09224 4775 ft 126 kts 246°
2026-04-22 15:09 57.94970 -4.10722 4627 ft 124 kts 246°
2026-04-22 15:10 57.94614 -4.12196 4602 ft 122 kts 245°
2026-04-22 15:10 57.94265 -4.13641 4600 ft 123 kts 245°
2026-04-22 15:10 57.93907 -4.15122 4600 ft 123 kts 245°
2026-04-22 15:10 57.93551 -4.16598 4600 ft 124 kts 245°
2026-04-22 15:11 57.93194 -4.18076 4600 ft 124 kts 245°
2026-04-22 15:11 57.92838 -4.19549 4600 ft 124 kts 245°
2026-04-22 15:11 57.92483 -4.21021 4599 ft 124 kts 245°
2026-04-22 15:11 57.92126 -4.22496 4599 ft 124 kts 245°
2026-04-22 15:12 57.91766 -4.23983 4599 ft 124 kts 245°
2026-04-22 15:12 57.91411 -4.25450 4599 ft 124 kts 245°
2026-04-22 15:12 57.91054 -4.26925 4599 ft 124 kts 245°
2026-04-22 15:12 57.90696 -4.28402 4599 ft 124 kts 245°
2026-04-22 15:13 57.90339 -4.29871 4599 ft 124 kts 245°
2026-04-22 15:13 57.89980 -4.31349 4599 ft 124 kts 245°
2026-04-22 15:13 57.89460 -4.32587 4595 ft 124 kts 211°
2026-04-22 15:13 57.88621 -4.33038 4462 ft 126 kts 186°
2026-04-22 15:14 57.87757 -4.32923 4285 ft 125 kts 168°
2026-04-22 15:14 57.86936 -4.32445 4110 ft 123 kts 159°
2026-04-22 15:14 57.86157 -4.31834 4012 ft 121 kts 156°
2026-04-22 15:14 57.85388 -4.31181 4001 ft 121 kts 155°
2026-04-22 15:15 57.84611 -4.30508 4000 ft 122 kts 155°
2026-04-22 15:15 57.83844 -4.29840 4000 ft 122 kts 155°
2026-04-22 15:15 57.83069 -4.29165 4000 ft 123 kts 155°
2026-04-22 15:15 57.82298 -4.28495 4000 ft 123 kts 155°
2026-04-22 15:16 57.81523 -4.27821 4000 ft 123 kts 155°
2026-04-22 15:16 57.80751 -4.27150 3999 ft 123 kts 155°
2026-04-22 15:16 57.79969 -4.26472 3999 ft 123 kts 155°
2026-04-22 15:16 57.79198 -4.25802 3999 ft 123 kts 155°
2026-04-22 15:17 57.78428 -4.25133 3999 ft 123 kts 155°
2026-04-22 15:17 57.77651 -4.24460 3999 ft 123 kts 155°
2026-04-22 15:17 57.76872 -4.23785 3999 ft 123 kts 155°
2026-04-22 15:17 57.76101 -4.23116 3999 ft 123 kts 155°
2026-04-22 15:18 57.75327 -4.22446 3999 ft 123 kts 155°
2026-04-22 15:18 57.74540 -4.21765 3929 ft 125 kts 155°
2026-04-22 15:18 57.73753 -4.21093 3753 ft 124 kts 157°
2026-04-22 15:18 57.72920 -4.21081 3568 ft 123 kts 201°
2026-04-22 15:19 57.72226 -4.21963 3395 ft 122 kts 224°
2026-04-22 15:19 57.71677 -4.23168 3219 ft 121 kts 233°
2026-04-22 15:19 57.71195 -4.24448 3051 ft 121 kts 236°
2026-04-22 15:19 57.70714 -4.25729 3005 ft 119 kts 234°
2026-04-22 15:20 57.70221 -4.26964 2998 ft 113 kts 232°
2026-04-22 15:20 57.69746 -4.28069 2998 ft 108 kts 230°
2026-04-22 15:20 57.69251 -4.29141 2907 ft 110 kts 228°
2026-04-22 15:20 57.68730 -4.30190 2732 ft 109 kts 226°
2026-04-22 15:21 57.68199 -4.31179 2576 ft 108 kts 224°
2026-04-22 15:21 57.67651 -4.32125 2426 ft 107 kts 222°
2026-04-22 15:21 57.67084 -4.33035 2276 ft 107 kts 220°
2026-04-22 15:21 57.66499 -4.33903 2125 ft 107 kts 218°
2026-04-22 15:22 57.65900 -4.34727 1975 ft 107 kts 216°
2026-04-22 15:22 57.65286 -4.35507 1825 ft 107 kts 213°
2026-04-22 15:22 57.64656 -4.36245 1688 ft 105 kts 211°
2026-04-22 15:22 57.64041 -4.36902 1846 ft 101 kts 209°
2026-04-22 15:23 57.63430 -4.37505 2019 ft 101 kts 207°
2026-04-22 15:23 57.62794 -4.38081 2196 ft 102 kts 205°
2026-04-22 15:23 57.62139 -4.38624 2289 ft 104 kts 203°
2026-04-22 15:23 57.61467 -4.39134 2298 ft 104 kts 201°
2026-04-22 15:24 57.60790 -4.39593 2299 ft 103 kts 199°
2026-04-22 15:24 57.60117 -4.39994 2298 ft 102 kts 197°
2026-04-22 15:24 57.59414 -4.40367 2130 ft 104 kts 195°
2026-04-22 15:24 57.58720 -4.40686 2015 ft 101 kts 193°
2026-04-22 15:25 57.58042 -4.40948 2001 ft 100 kts 191°
2026-04-22 15:25 57.57342 -4.41171 1910 ft 102 kts 189°
2026-04-22 15:25 57.56676 -4.41342 1730 ft 94 kts 187°
2026-04-22 15:25 57.56041 -4.41464 1614 ft 89 kts 185°
2026-04-22 15:26 57.55426 -4.41542 1603 ft 89 kts 183°
2026-04-22 15:26 57.54797 -4.41586 1604 ft 90 kts 181°
2026-04-22 15:26 57.54173 -4.41595 1605 ft 91 kts 180°
2026-04-22 15:26 57.53537 -4.41568 1560 ft 93 kts 178°
2026-04-22 15:27 57.52910 -4.41508 1414 ft 85 kts 176°
2026-04-22 15:27 57.52313 -4.41415 1311 ft 84 kts 174°
2026-04-22 15:27 57.51736 -4.41290 1301 ft 84 kts 173°
2026-04-22 15:27 57.51145 -4.41132 1158 ft 87 kts 171°
2026-04-22 15:28 57.50554 -4.40940 1021 ft 84 kts 168°
2026-04-22 15:28 57.49984 -4.40666 1002 ft 84 kts 165°
2026-04-22 15:28 57.49421 -4.40368 1000 ft 84 kts 164°
2026-04-22 15:28 57.48860 -4.40058 1000 ft 85 kts 163°
2026-04-22 15:29 57.48290 -4.39724 987 ft 88 kts 162°
2026-04-22 15:29 57.47764 -4.39391 1108 ft 78 kts 160°
2026-04-22 15:29 57.47245 -4.39031 1286 ft 79 kts 159°
2026-04-22 15:30 57.46197 -4.38224 1516 ft 84 kts 156°
2026-04-22 15:30 57.45667 -4.37772 1598 ft 92 kts 155°
2026-04-22 15:30 57.45210 -4.37104 1730 ft 83 kts 120°
2026-04-22 15:30 57.45112 -4.36044 1791 ft 93 kts 88°
2026-04-22 15:31 57.45163 -4.34845 1616 ft 93 kts 84°
2026-04-22 15:31 57.45228 -4.33654 1447 ft 91 kts 84°
2026-04-22 15:31 57.45292 -4.32505 1404 ft 89 kts 84°
2026-04-22 15:31 57.45358 -4.31345 1400 ft 90 kts 84°
2026-04-22 15:32 57.45422 -4.30196 1400 ft 90 kts 84°
2026-04-22 15:32 57.45488 -4.29022 1318 ft 93 kts 84°
2026-04-22 15:32 57.45552 -4.27839 1212 ft 90 kts 84°
2026-04-22 15:32 57.45618 -4.26684 1201 ft 90 kts 83°
2026-04-22 15:33 57.45771 -4.25538 1113 ft 90 kts 69°
2026-04-22 15:33 57.46043 -4.24508 1101 ft 90 kts 60°
2026-04-22 15:33 57.46381 -4.23527 1100 ft 90 kts 56°
2026-04-22 15:33 57.46743 -4.22565 1100 ft 90 kts 56°
2026-04-22 15:34 57.47084 -4.21656 1077 ft 87 kts 54°
2026-04-22 15:34 57.47439 -4.20740 952 ft 87 kts 54°
2026-04-22 15:34 57.47791 -4.19857 939 ft 83 kts 53°
2026-04-22 15:34 57.48146 -4.18983 831 ft 84 kts 53°
2026-04-22 15:35 57.48493 -4.18130 653 ft 81 kts 53°
2026-04-22 15:35 57.48822 -4.17323 563 ft 71 kts 54°
2026-04-22 15:35 57.49089 -4.16567 523 ft 72 kts 59°
2026-04-22 15:35 57.49289 -4.15711 535 ft 70 kts 63°
2026-04-22 15:36 57.49556 -4.14945 548 ft 69 kts 51°
2026-04-22 15:36 57.49827 -4.14297 604 ft 65 kts 49°
2026-04-22 15:36 57.50119 -4.13683 708 ft 62 kts 50°
2026-04-22 15:36 57.50383 -4.13094 825 ft 59 kts 47°
2026-04-22 15:37 57.50663 -4.12516 936 ft 60 kts 47°
2026-04-22 15:37 57.50951 -4.11938 1004 ft 60 kts 47°
2026-04-22 15:37 57.51238 -4.11321 1014 ft 63 kts 49°
2026-04-22 15:37 57.51532 -4.10701 941 ft 65 kts 50°
2026-04-22 15:38 57.51829 -4.10097 855 ft 64 kts 46°
2026-04-22 15:38 57.52403 -4.08819 580 ft 65 kts 47°
2026-04-22 15:38 57.52692 -4.08205 435 ft 64 kts 49°
2026-04-22 15:39 57.52964 -4.07546 285 ft 63 kts 54°
2026-04-22 15:39 57.53255 -4.06919 167 ft 63 kts 48°
2026-04-22 15:39 57.53548 -4.06297 80 ft 63 kts 49°
2026-04-22 15:39 57.53831 -4.05701 38 ft 60 kts 48°
2026-04-22 15:40 57.54088 -4.05145 30 ft 51 kts 49°
2026-04-22 15:40 57.54210 -4.04880 27 ft 1 kts 52°
2026-04-22 15:40 57.54236 -4.04819 27 ft 5 kts 58°
2026-04-22 15:40 57.54249 -4.04783 27 ft 0 kts 52°
2026-04-22 15:41 57.54246 -4.04781 27 ft 2 kts 219°
2026-04-22 15:41 57.54196 -4.04854 27 ft 15 kts 206°
2026-04-22 15:41 57.54055 -4.04885 27 ft 17 kts 185°
2026-04-22 15:41 57.53968 -4.04887 27 ft 17 kts 188°
2026-04-22 15:42 57.53830 -4.04890 27 ft 5 kts 174°
2026-04-22 15:42 57.53830 -4.04886 27 ft 0 kts 342°